TimeCDT,TemperatureF,Dew PointF,Humidity,Sea Level PressureIn,VisibilityMPH,Wind Direction,Wind SpeedMPH,Gust SpeedMPH,PrecipitationIn,Events,Conditions,WindDirDegrees,DateUTC
12:53 AM,62.1,57.0,84,30.01,10.0,Calm,Calm,-,N/A,,Clear,0,2013-07-25 05:53:00
1:53 AM,60.1,57.0,90,30.01,10.0,Calm,Calm,-,N/A,,Clear,0,2013-07-25 06:53:00
2:53 AM,59.0,55.9,90,30.01,10.0,Calm,Calm,-,N/A,,Clear,0,2013-07-25 07:53:00
3:53 AM,57.9,55.9,93,30.02,10.0,West,3.5,-,N/A,,Clear,270,2013-07-25 08:53:00
4:53 AM,57.9,55.9,93,30.03,10.0,Calm,Calm,-,N/A,,Clear,0,2013-07-25 09:53:00
5:53 AM,57.0,55.0,93,30.05,10.0,West,3.5,-,N/A,,Clear,270,2013-07-25 10:53:00
6:53 AM,60.1,57.0,90,30.06,10.0,West,3.5,-,N/A,,Clear,280,2013-07-25 11:53:00
7:53 AM,66.0,59.0,78,30.06,10.0,Calm,Calm,-,N/A,,Clear,0,2013-07-25 12:53:00
8:53 AM,70.0,57.9,65,30.08,10.0,NW,3.5,-,N/A,,Clear,320,2013-07-25 13:53:00
9:53 AM,73.9,57.9,57,30.09,10.0,Variable,5.8,-,N/A,,Clear,0,2013-07-25 14:53:00
10:53 AM,77.0,55.9,48,30.10,10.0,NNE,9.2,-,N/A,,Clear,30,2013-07-25 15:53:00
11:53 AM,79.0,55.9,45,30.10,10.0,NNE,10.4,-,N/A,,Clear,30,2013-07-25 16:53:00
12:53 PM,80.1,55.9,43,30.09,10.0,North,8.1,-,N/A,,Clear,10,2013-07-25 17:53:00
1:53 PM,81.0,57.0,44,30.09,10.0,NNE,9.2,-,N/A,,Scattered Clouds,30,2013-07-25 18:53:00
2:53 PM,80.1,55.9,43,30.08,10.0,NNE,6.9,-,N/A,,Mostly Cloudy,30,2013-07-25 19:53:00
3:53 PM,82.9,57.9,42,30.07,10.0,NNE,5.8,-,N/A,,Scattered Clouds,20,2013-07-25 20:53:00
4:53 PM,81.0,57.0,44,30.07,10.0,NE,6.9,-,N/A,,Clear,40,2013-07-25 21:53:00
5:53 PM,82.0,55.9,41,30.06,10.0,NE,8.1,-,N/A,,Partly Cloudy,40,2013-07-25 22:53:00
6:53 PM,80.1,57.9,47,30.06,10.0,NNE,3.5,-,N/A,,Partly Cloudy,20,2013-07-25 23:53:00
7:53 PM,75.9,57.9,54,30.06,10.0,NE,3.5,-,N/A,,Clear,40,2013-07-26 00:53:00
8:53 PM,70.0,61.0,73,30.06,10.0,Calm,Calm,-,N/A,,Clear,0,2013-07-26 01:53:00
9:53 PM,66.0,60.1,81,30.06,10.0,Calm,Calm,-,N/A,,Clear,0,2013-07-26 02:53:00
10:53 PM,64.9,60.1,84,30.07,10.0,Calm,Calm,-,N/A,,Clear,0,2013-07-26 03:53:00
11:53 PM,62.1,59.0,90,30.08,10.0,Calm,Calm,-,N/A,,Clear,0,2013-07-26 04:53:00